This is the latest recevied weather packets stored in our database for station/object NO9B. If no packets are shown the sender has not sent any weather packets the latest 10 day(s).
| Time | Temp. | Humidity | Pressure | Rain* | Wind** | Luminosity | Snow |
|---|---|---|---|---|---|---|---|
| 1787683253 | 27.78° C | 54% | 1019.4 hPa | 0 mm | - | 704 W/m² | - |
| 1787682950 | 27.22° C | 53% | 1019.7 hPa | 0 mm | - | 667 W/m² | - |
| 1787682646 | 26.67° C | 54% | 1019.6 hPa | 0 mm | - | 708 W/m² | - |
| 1787682342 | 27.22° C | 54% | 1019.6 hPa | 0 mm | - | 726 W/m² | - |
| 1787682038 | 27.78° C | 53% | 1019.7 hPa | 0 mm | - | 118 W/m² | - |
| 1787681738 | 27.22° C | 55% | 1019.7 hPa | 0 mm | - | 743 W/m² | - |
| 1787681433 | 27.22° C | 53% | 1019.8 hPa | 0 mm | - | 277 W/m² | - |
| 1787681132 | 27.22° C | 55% | 1019.8 hPa | 0 mm | - | 671 W/m² | - |
| 1787680828 | 26.67° C | 56% | 1019.9 hPa | 0 mm | - | 216 W/m² | - |
| 1787680523 | 26.67° C | 53% | 1020 hPa | 0 mm | - | 113 W/m² | - |
| 1787680221 | 26.67° C | 55% | 1020.1 hPa | 0 mm | - | 701 W/m² | - |
| 1787679920 | 27.78° C | 53% | 1019.8 hPa | 0 mm | - | 653 W/m² | - |
| 1787679615 | 27.78° C | 52% | 1020.1 hPa | 0 mm | - | 656 W/m² | - |
| 1787679311 | 27.78° C | 51% | 1020.3 hPa | 0 mm | - | 651 W/m² | - |
| 1787679007 | 27.22° C | 55% | 1020.3 hPa | 0 mm | - | 648 W/m² | - |
| 1787678707 | 26.67° C | 54% | 1020.5 hPa | 0 mm | - | 642 W/m² | - |
| 1787678401 | 26.11° C | 57% | 1020.6 hPa | 0 mm | - | 653 W/m² | - |
| 1787678097 | 26.11° C | 56% | 1020.4 hPa | 0 mm | - | 576 W/m² | - |
| 1787677796 | 26.11° C | 56% | 1020.5 hPa | 0 mm | - | 547 W/m² | - |
| 1787677491 | 26.11° C | 59% | 1020.7 hPa | 0 mm | - | 597 W/m² | - |
| 1787676890 | 26.11° C | 55% | 1020.9 hPa | 0 mm | - | 576 W/m² | - |
| 1787676584 | 25.56° C | 61% | 1021 hPa | 0 mm | - | 573 W/m² | - |
| 1787676282 | 25° C | 61% | 1021.1 hPa | 0 mm | - | 567 W/m² | - |
| 1787675977 | 25° C | 63% | 1021.3 hPa | 0 mm | - | 562 W/m² | - |
| 1787675672 | 25° C | 62% | 1021.4 hPa | 0 mm | - | 554 W/m² | - |
* Rain latest hour (hover to see other rain measurements)
** Current wind speed in m/s (hover to see current wind gust speed)